Content
SEND FEEDBACK

Daily
Averages
Monthly
Summary
United States of America

VICTORIA - AIRPORT, TEXAS


Home > North America > United States > Texas
Elevation: 110 feet     Latitude: 28 47N     Longitude: 097 05W

WEATHER
 
SELECT A DAY
Number of Records: 225,648;   Date Range: 1/1/95 - 8/12/14
 
SHARE

PRINT THIS DATA

[ ← Previous Day ]
WEATHER ALMANAC - FEBRUARY 13, 2013
[ Next Day → ]
[ °C ]   °F
Weather ElementAverageHighLow
Temperature52.7 °F62.1 °F (3:51 pm)43 °F (11:51 pm)
Dewpoint40.7 °F53.6 °F (1:31 am)36 °F (7:51 am)
Humidity65.8 %88 % (1:31 am)41 % (3:51 pm)
Barometer30.09 in30.17 in (9:51 am)30.02 in (1:31 am)
Wind Speed9.2 mph18.4 mph (5:51 am)
Wind Gust25.3 mph (7:01 am)
Weather ElementAverage
Visibility10 mi
Wind DirectionSSE (150.4 °)

Weather ElementTotal
Precipitation---
Heating Degree Days12.5 (Base 65)
Growing Degree Days2.6 (Base 50)
Averaged from 25 records on February 13, 2013
WEATHER CONDITIONS BREAKOUT
WIND DIRECTION BREAKOUT
WEATHER BY HOUR - FEBRUARY 13, 2013
[ °C ]   °F
Local TimeTemperatureDewpointHumidityBarometerVisibilityWind DirectionWind SpeedGust SpeedPrecipitationEventsConditions
1:31 AM57.2 °F53.6 °F88 %30.02 in10.0 miNNE (20°)10.4 mphOvercast
1:51 AM57.0 °F53.1 °F87 %30.04 in10.0 miNNE (20°)8.1 mphScattered Clouds
2:51 AM55.9 °F48.0 °F75 %30.03 in10.0 miNorth (10°)12.7 mphMostly Cloudy
3:51 AM54.0 °F46.9 °F77 %30.06 in10.0 miNorth (360°)15.0 mph0.00 inOvercast
4:51 AM50.0 °F42.1 °F74 %30.09 in10.0 miNNW (330°)9.2 mph0.00 inOvercast
5:51 AM48.0 °F37.0 °F66 %30.09 in10.0 miNorth (360°)18.4 mph23.0 mph0.00 inOvercast
6:51 AM46.0 °F37.0 °F71 %30.10 in10.0 miNorth (360°)16.1 mph0.00 inMostly Cloudy
7:01 AM46.4 °F37.4 °F71 %30.09 in10.0 miNorth (10°)15.0 mph25.3 mphMostly Cloudy
7:51 AM45.0 °F36.0 °F71 %30.13 in10.0 miNorth (360°)11.5 mph18.4 mphMostly Cloudy
8:51 AM46.0 °F37.0 °F71 %30.15 in10.0 miNorth (350°)12.7 mphScattered Clouds
9:51 AM50.0 °F37.9 °F63 %30.17 in10.0 miNNW (340°)13.8 mphScattered Clouds
10:51 AM53.1 °F37.9 °F57 %30.17 in10.0 miNorth (10°)10.4 mph19.6 mphClear
11:51 AM55.9 °F37.9 °F51 %30.16 in10.0 miNNE (20°)10.4 mph17.3 mphClear
12:51 PM57.9 °F39.0 °F49 %30.13 in10.0 miNorth (350°)8.1 mph17.3 mphClear
1:51 PM60.1 °F39.0 °F46 %30.09 in10.0 miVariable6.9 mphClear
2:51 PM61.0 °F37.9 °F42 %30.07 in10.0 miVariable6.9 mphClear
3:51 PM62.1 °F37.9 °F41 %30.05 in10.0 miNorth (360°)8.1 mphClear
4:51 PM62.1 °F37.9 °F41 %30.05 in10.0 miNorth (10°)8.1 mphClear
5:51 PM59.0 °F37.9 °F46 %30.05 in10.0 miNorth (360°)6.9 mphClear
6:51 PM53.1 °F41.0 °F64 %30.05 in10.0 miNorth (10°)6.9 mphClear
7:51 PM51.1 °F41.0 °F68 %30.06 in10.0 miNNE (20°)5.8 mphClear
8:51 PM48.9 °F43.0 °F80 %30.07 in10.0 miNE (40°)5.8 mphClear
9:51 PM48.0 °F42.1 °F80 %30.09 in10.0 miENE (60°)3.5 mphClear
10:51 PM46.0 °F39.9 °F79 %30.11 in10.0 miCalmClear
11:51 PM43.0 °F39.0 °F86 %30.12 in10.0 miCalmClear
Hourly data recorded from KVCT, located miles away from Victoria - Airport, Texas







STORIES FROM OUR PARTNERS